LPE4190 SPZO-SPJC

Flight info

Callsign LPE4190
Flight time 1h 2m
Altitude 36000
Route GAXUN UT321 UDENI UT332 PEROV
Aircraft A321/M-SDE3FGHIRWY/LB1

Departure

Time 2026-04-28 00:28
Airport Alejandro Velasco Astete International Airport (SPZO)

Arrival

Time 2026-04-28 01:30
Airport Jorge Chávez International Airport (SPJC)
Time Latitude Longitude Altitude Speed Heading
2026-04-28 00:09 -13.53773 -71.94322 10799 ft 0 kts 272°
2026-04-28 00:19 -13.53773 -71.94305 10797 ft 3 kts 272°
2026-04-28 00:19 -13.53779 -71.94287 10796 ft 3 kts 321°
2026-04-28 00:20 -13.53795 -71.94278 10794 ft 1 kts
2026-04-28 00:20 -13.53796 -71.94278 10794 ft 0 kts
2026-04-28 00:22 -13.53795 -71.94278 10794 ft 1 kts
2026-04-28 00:23 -13.53749 -71.94269 10792 ft 13 kts 10°
2026-04-28 00:23 -13.53671 -71.94303 10791 ft 14 kts 291°
2026-04-28 00:23 -13.53640 -71.94341 10793 ft 0 kts 325°
2026-04-28 00:23 -13.53640 -71.94349 10797 ft 2 kts 259°
2026-04-28 00:24 -13.53658 -71.94389 10796 ft 9 kts 264°
2026-04-28 00:24 -13.53651 -71.94465 10800 ft 13 kts 276°
2026-04-28 00:24 -13.53641 -71.94563 10809 ft 14 kts 274°
2026-04-28 00:24 -13.53627 -71.94702 10813 ft 15 kts 276°
2026-04-28 00:25 -13.53619 -71.94777 10817 ft 16 kts 276°
2026-04-28 00:25 -13.53608 -71.94889 10823 ft 16 kts 276°
2026-04-28 00:25 -13.53596 -71.95002 10827 ft 16 kts 276°
2026-04-28 00:25 -13.53586 -71.95107 10832 ft 15 kts 275°
2026-04-28 00:26 -13.53575 -71.95215 10839 ft 16 kts 276°
2026-04-28 00:26 -13.53564 -71.95324 10844 ft 16 kts 276°
2026-04-28 00:26 -13.53548 -71.95437 10851 ft 13 kts 285°
2026-04-28 00:26 -13.53474 -71.95454 10851 ft 15 kts 30°
2026-04-28 00:27 -13.53422 -71.95398 10856 ft 8 kts 78°
2026-04-28 00:27 -13.53427 -71.95320 10846 ft 16 kts 96°
2026-04-28 00:27 -13.53458 -71.95023 10830 ft 74 kts 96°
2026-04-28 00:27 -13.53534 -71.94278 10794 ft 134 kts 96°
2026-04-28 00:28 -13.53648 -71.93148 10737 ft 182 kts 96°
2026-04-28 00:28 -13.53799 -71.91736 10878 ft 204 kts 96°
2026-04-28 00:28 -13.53945 -71.90312 11571 ft 201 kts 95°
2026-04-28 00:28 -13.54192 -71.88894 12026 ft 205 kts 104°
2026-04-28 00:29 -13.54749 -71.87486 12138 ft 220 kts 116°
2026-04-28 00:29 -13.55448 -71.86041 12320 ft 232 kts 113°
2026-04-28 00:29 -13.56062 -71.84475 12440 ft 249 kts 109°
2026-04-28 00:29 -13.56759 -71.82766 12528 ft 269 kts 122°
2026-04-28 00:30 -13.57932 -71.81186 12672 ft 288 kts 130°
2026-04-28 00:30 -13.59230 -71.79582 13280 ft 290 kts 128°
2026-04-28 00:30 -13.60289 -71.77880 13870 ft 281 kts 108°
2026-04-28 00:30 -13.60533 -71.75896 14106 ft 284 kts 79°
2026-04-28 00:31 -13.59904 -71.73964 14381 ft 292 kts 57°
2026-04-28 00:31 -13.58469 -71.72465 14531 ft 302 kts 28°
2026-04-28 00:31 -13.56450 -71.71832 14778 ft 311 kts
2026-04-28 00:31 -13.54283 -71.72189 14939 ft 325 kts 336°
2026-04-28 00:32 -13.52424 -71.73569 15117 ft 339 kts 314°
2026-04-28 00:32 -13.50851 -71.75447 15283 ft 354 kts 308°
2026-04-28 00:32 -13.49379 -71.77532 15440 ft 367 kts 306°
2026-04-28 00:32 -13.47879 -71.79676 15827 ft 373 kts 306°
2026-04-28 00:33 -13.46334 -71.81841 16233 ft 378 kts 307°
2026-04-28 00:33 -13.44918 -71.84112 16690 ft 380 kts 297°
2026-04-28 00:33 -13.43775 -71.86583 17033 ft 387 kts 292°
2026-04-28 00:33 -13.42820 -71.89171 17577 ft 388 kts 289°
2026-04-28 00:34 -13.41954 -71.91806 18031 ft 391 kts 287°
2026-04-28 00:34 -13.41116 -71.94481 18437 ft 394 kts 288°
2026-04-28 00:34 -13.40242 -71.97116 18935 ft 395 kts 289°
2026-04-28 00:34 -13.39303 -71.99785 19259 ft 400 kts 290°
2026-04-28 00:35 -13.38319 -72.02466 19653 ft 402 kts 290°
2026-04-28 00:35 -13.37312 -72.05150 20057 ft 403 kts 291°
2026-04-28 00:35 -13.36295 -72.07844 20445 ft 406 kts 290°
2026-04-28 00:35 -13.35276 -72.10553 20673 ft 408 kts 290°
2026-04-28 00:36 -13.34257 -72.13285 21090 ft 410 kts 290°
2026-04-28 00:36 -13.33238 -72.16033 21514 ft 412 kts 290°
2026-04-28 00:36 -13.32218 -72.18789 21943 ft 414 kts 290°
2026-04-28 00:36 -13.31194 -72.21559 22363 ft 416 kts 290°
2026-04-28 00:37 -13.30164 -72.24341 22779 ft 417 kts 290°
2026-04-28 00:37 -13.29131 -72.27131 23162 ft 420 kts 290°
2026-04-28 00:37 -13.28091 -72.29939 23557 ft 422 kts 290°
2026-04-28 00:37 -13.27044 -72.32767 23901 ft 424 kts 291°
2026-04-28 00:38 -13.25992 -72.35601 24202 ft 426 kts 291°
2026-04-28 00:38 -13.24946 -72.38412 24511 ft 428 kts 291°
2026-04-28 00:38 -13.23884 -72.41265 24865 ft 429 kts 291°
2026-04-28 00:38 -13.22819 -72.44129 25182 ft 430 kts 290°
2026-04-28 00:39 -13.21756 -72.47004 25460 ft 432 kts 290°
2026-04-28 00:39 -13.20684 -72.49893 25765 ft 434 kts 291°
2026-04-28 00:39 -13.19603 -72.52793 26053 ft 436 kts 291°
2026-04-28 00:39 -13.18518 -72.55699 26365 ft 437 kts 291°
2026-04-28 00:40 -13.17429 -72.58623 26672 ft 439 kts 291°
2026-04-28 00:40 -13.16340 -72.61554 26964 ft 441 kts 291°
2026-04-28 00:40 -13.15246 -72.64498 27256 ft 442 kts 291°
2026-04-28 00:40 -13.14148 -72.67448 27562 ft 444 kts 291°
2026-04-28 00:41 -13.13045 -72.70408 27850 ft 445 kts 291°
2026-04-28 00:41 -13.11937 -72.73378 28140 ft 447 kts 291°
2026-04-28 00:41 -13.10821 -72.76361 28434 ft 449 kts 291°
2026-04-28 00:41 -13.09805 -72.79393 28714 ft 450 kts 284°
2026-04-28 00:42 -13.09082 -72.82525 29008 ft 452 kts 283°
2026-04-28 00:42 -13.08370 -72.85669 29286 ft 454 kts 283°
2026-04-28 00:42 -13.07668 -72.88786 29556 ft 455 kts 283°
2026-04-28 00:42 -13.06956 -72.91952 29828 ft 457 kts 283°
2026-04-28 00:43 -13.06236 -72.95131 30098 ft 458 kts 283°
2026-04-28 00:43 -13.05509 -72.98323 30385 ft 459 kts 284°
2026-04-28 00:43 -13.04780 -73.01514 30630 ft 460 kts 283°
2026-04-28 00:43 -13.04048 -73.04718 30875 ft 462 kts 283°
2026-04-28 00:44 -13.03314 -73.07925 31115 ft 463 kts 283°
2026-04-28 00:44 -13.02577 -73.11142 31392 ft 462 kts 283°
2026-04-28 00:44 -13.01842 -73.14342 31729 ft 461 kts 283°
2026-04-28 00:44 -13.01107 -73.17535 32079 ft 459 kts 283°
2026-04-28 00:45 -13.00373 -73.20718 32413 ft 458 kts 283°
2026-04-28 00:45 -12.99641 -73.23897 32750 ft 457 kts 283°
2026-04-28 00:45 -12.98919 -73.27057 33094 ft 455 kts 283°
2026-04-28 00:45 -12.98203 -73.30211 33421 ft 454 kts 283°
2026-04-28 00:46 -12.97486 -73.33361 33777 ft 452 kts 283°
2026-04-28 00:46 -12.96769 -73.36494 34122 ft 451 kts 283°
2026-04-28 00:46 -12.96051 -73.39623 34438 ft 450 kts 283°
2026-04-28 00:46 -12.95344 -73.42700 34680 ft 449 kts 283°
2026-04-28 00:47 -12.94627 -73.45820 34930 ft 449 kts 283°
2026-04-28 00:47 -12.93910 -73.48935 35196 ft 449 kts 284°
2026-04-28 00:47 -12.93189 -73.52049 35481 ft 449 kts 284°
2026-04-28 00:47 -12.92468 -73.55167 35741 ft 448 kts 284°
2026-04-28 00:48 -12.91752 -73.58275 35995 ft 448 kts 284°
2026-04-28 00:48 -12.91035 -73.61387 36210 ft 449 kts 284°
2026-04-28 00:48 -12.90319 -73.64490 36271 ft 446 kts 284°
2026-04-28 00:49 -12.88901 -73.70634 36321 ft 440 kts 284°
2026-04-28 00:49 -12.87495 -73.76734 36317 ft 439 kts 284°
2026-04-28 00:50 -12.86083 -73.82821 36349 ft 439 kts 284°
2026-04-28 00:50 -12.84680 -73.88869 36350 ft 439 kts 284°
2026-04-28 00:51 -12.83268 -73.94957 36352 ft 439 kts 284°
2026-04-28 00:51 -12.81850 -74.01052 36361 ft 440 kts 284°
2026-04-28 00:52 -12.80426 -74.07154 36359 ft 440 kts 284°
2026-04-28 00:52 -12.79003 -74.13253 36373 ft 440 kts 284°
2026-04-28 00:53 -12.77580 -74.19354 36373 ft 441 kts 284°
2026-04-28 00:53 -12.76170 -74.25424 36375 ft 440 kts 284°
2026-04-28 00:54 -12.74750 -74.31535 36372 ft 440 kts 284°
2026-04-28 00:54 -12.73322 -74.37638 36365 ft 440 kts 284°
2026-04-28 00:55 -12.71889 -74.43729 36365 ft 440 kts 284°
2026-04-28 00:55 -12.70457 -74.49820 36367 ft 439 kts 284°
2026-04-28 00:56 -12.69033 -74.55902 36360 ft 439 kts 284°
2026-04-28 00:56 -12.67602 -74.61993 36351 ft 439 kts 284°
2026-04-28 00:57 -12.66175 -74.68047 36333 ft 441 kts 284°
2026-04-28 00:57 -12.64731 -74.74161 36330 ft 441 kts 284°
2026-04-28 00:58 -12.63293 -74.80278 36327 ft 442 kts 284°
2026-04-28 00:58 -12.61852 -74.86408 36313 ft 443 kts 284°
2026-04-28 00:59 -12.60398 -74.92547 36321 ft 443 kts 284°
2026-04-28 00:59 -12.58955 -74.98639 36323 ft 443 kts 284°
2026-04-28 01:00 -12.57511 -75.04775 36328 ft 443 kts 284°
2026-04-28 01:00 -12.56059 -75.10905 36323 ft 442 kts 284°
2026-04-28 01:01 -12.54609 -75.17023 36328 ft 441 kts 285°
2026-04-28 01:01 -12.53161 -75.23089 36312 ft 441 kts 285°
2026-04-28 01:02 -12.51715 -75.29179 36307 ft 440 kts 284°
2026-04-28 01:02 -12.50323 -75.35280 36286 ft 440 kts 284°
2026-04-28 01:03 -12.48955 -75.41377 36265 ft 440 kts 284°
2026-04-28 01:03 -12.47580 -75.47466 36265 ft 439 kts 284°
2026-04-28 01:04 -12.46191 -75.53549 36249 ft 439 kts 284°
2026-04-28 01:04 -12.45497 -75.56598 35840 ft 442 kts 284°
2026-04-28 01:04 -12.44798 -75.59674 35217 ft 444 kts 283°
2026-04-28 01:04 -12.44099 -75.62738 34739 ft 442 kts 283°
2026-04-28 01:05 -12.43400 -75.65795 34240 ft 440 kts 283°
2026-04-28 01:05 -12.42704 -75.68836 33716 ft 438 kts 283°
2026-04-28 01:05 -12.42012 -75.71862 33241 ft 435 kts 283°
2026-04-28 01:05 -12.41326 -75.74864 32770 ft 432 kts 283°
2026-04-28 01:06 -12.40643 -75.77846 32282 ft 429 kts 283°
2026-04-28 01:06 -12.39965 -75.80808 31803 ft 426 kts 283°
2026-04-28 01:06 -12.39294 -75.83750 31352 ft 424 kts 282°
2026-04-28 01:06 -12.38635 -75.86642 30880 ft 422 kts 282°
2026-04-28 01:07 -12.37961 -75.89594 30419 ft 420 kts 282°
2026-04-28 01:07 -12.37298 -75.92485 29919 ft 417 kts 282°
2026-04-28 01:07 -12.36637 -75.95364 29476 ft 413 kts 282°
2026-04-28 01:07 -12.36203 -75.97255 29185 ft 411 kts 282°
2026-04-28 01:08 -12.35342 -76.00994 28624 ft 406 kts 283°
2026-04-28 01:08 -12.34697 -76.03800 28201 ft 404 kts 283°
2026-04-28 01:08 -12.34068 -76.06591 27770 ft 402 kts 282°
2026-04-28 01:08 -12.33461 -76.09375 27321 ft 401 kts 282°
2026-04-28 01:09 -12.32865 -76.12158 26883 ft 399 kts 282°
2026-04-28 01:09 -12.32274 -76.14930 26457 ft 398 kts 282°
2026-04-28 01:09 -12.31685 -76.17690 26023 ft 397 kts 282°
2026-04-28 01:09 -12.31095 -76.20442 25598 ft 396 kts 282°
2026-04-28 01:10 -12.30504 -76.23188 25130 ft 394 kts 282°
2026-04-28 01:10 -12.29918 -76.25922 24709 ft 393 kts 282°
2026-04-28 01:10 -12.29332 -76.28650 24284 ft 393 kts 283°
2026-04-28 01:10 -12.28745 -76.31379 23860 ft 392 kts 283°
2026-04-28 01:11 -12.28159 -76.34097 23393 ft 391 kts 283°
2026-04-28 01:11 -12.27572 -76.36810 22937 ft 388 kts 283°
2026-04-28 01:11 -12.26994 -76.39493 22520 ft 385 kts 283°
2026-04-28 01:11 -12.26431 -76.42112 22114 ft 381 kts 283°
2026-04-28 01:12 -12.25856 -76.44785 21690 ft 377 kts 283°
2026-04-28 01:12 -12.25304 -76.47358 21291 ft 374 kts 283°
2026-04-28 01:12 -12.24740 -76.49974 20882 ft 371 kts 283°
2026-04-28 01:12 -12.24191 -76.52507 20445 ft 368 kts 283°
2026-04-28 01:13 -12.23638 -76.55051 20048 ft 365 kts 283°
2026-04-28 01:13 -12.22545 -76.60089 19263 ft 361 kts 283°
2026-04-28 01:13 -12.22006 -76.62577 18965 ft 355 kts 283°
2026-04-28 01:14 -12.21474 -76.65033 18511 ft 355 kts 283°
2026-04-28 01:14 -12.20941 -76.67481 18197 ft 350 kts 283°
2026-04-28 01:14 -12.20590 -76.69093 17836 ft 351 kts 283°
2026-04-28 01:14 -12.20053 -76.71539 17493 ft 346 kts 283°
2026-04-28 01:15 -12.19532 -76.73904 17076 ft 344 kts 283°
2026-04-28 01:15 -12.19012 -76.76277 16681 ft 342 kts 283°
2026-04-28 01:15 -12.18493 -76.78640 16316 ft 338 kts 283°
2026-04-28 01:15 -12.17980 -76.80980 15908 ft 337 kts 283°
2026-04-28 01:16 -12.17473 -76.83303 15546 ft 334 kts 282°
2026-04-28 01:16 -12.16967 -76.85617 15184 ft 332 kts 282°
2026-04-28 01:16 -12.16463 -76.87916 14821 ft 330 kts 282°
2026-04-28 01:16 -12.15963 -76.90191 14469 ft 328 kts 282°
2026-04-28 01:17 -12.15462 -76.92465 14112 ft 327 kts 281°
2026-04-28 01:17 -12.14964 -76.94731 13700 ft 326 kts 281°
2026-04-28 01:17 -12.14475 -76.96960 13337 ft 323 kts 282°
2026-04-28 01:17 -12.13983 -76.99198 12876 ft 324 kts 281°
2026-04-28 01:18 -12.13494 -77.01427 12554 ft 320 kts 282°
2026-04-28 01:18 -12.13008 -77.03644 12191 ft 317 kts 282°
2026-04-28 01:18 -12.12528 -77.05835 11846 ft 315 kts 281°
2026-04-28 01:18 -12.12049 -77.08021 11416 ft 315 kts 282°
2026-04-28 01:19 -12.11574 -77.10201 11071 ft 313 kts 281°
2026-04-28 01:19 -12.11099 -77.12367 10697 ft 312 kts 281°
2026-04-28 01:19 -12.10624 -77.14531 10375 ft 309 kts 281°
2026-04-28 01:19 -12.10140 -77.16628 10255 ft 298 kts 287°
2026-04-28 01:20 -12.09256 -77.18474 9940 ft 284 kts 307°
2026-04-28 01:20 -12.07874 -77.19860 9523 ft 276 kts 325°
2026-04-28 01:20 -12.06189 -77.20774 9231 ft 275 kts 335°
2026-04-28 01:20 -12.04468 -77.21619 8905 ft 274 kts 334°
2026-04-28 01:21 -12.02761 -77.22466 8566 ft 271 kts 334°
2026-04-28 01:21 -12.01067 -77.23309 8243 ft 270 kts 334°
2026-04-28 01:21 -11.99396 -77.24164 7920 ft 267 kts 333°
2026-04-28 01:21 -11.97748 -77.25025 7597 ft 265 kts 333°
2026-04-28 01:22 -11.96113 -77.25886 7278 ft 263 kts 333°
2026-04-28 01:22 -11.94512 -77.26728 6960 ft 261 kts 333°
2026-04-28 01:22 -11.92899 -77.27573 6653 ft 259 kts 333°
2026-04-28 01:22 -11.91296 -77.28400 6318 ft 257 kts 334°
2026-04-28 01:23 -11.89694 -77.29195 5967 ft 255 kts 334°
2026-04-28 01:23 -11.88098 -77.29978 5642 ft 254 kts 335°
2026-04-28 01:23 -11.86485 -77.30695 5294 ft 252 kts 345°
2026-04-28 01:23 -11.84765 -77.30687 4984 ft 249 kts 17°
2026-04-28 01:24 -11.83308 -77.29777 4646 ft 248 kts 47°
2026-04-28 01:24 -11.82432 -77.28275 4314 ft 247 kts 64°
2026-04-28 01:24 -11.81703 -77.26738 4210 ft 233 kts 64°
2026-04-28 01:24 -11.81045 -77.25298 4134 ft 218 kts 69°
2026-04-28 01:25 -11.80848 -77.23788 4017 ft 215 kts 95°
2026-04-28 01:25 -11.81298 -77.22346 3801 ft 214 kts 121°
2026-04-28 01:25 -11.82310 -77.21257 3569 ft 213 kts 146°
2026-04-28 01:25 -11.83625 -77.20572 3351 ft 212 kts 154°
2026-04-28 01:26 -11.84952 -77.19924 3109 ft 208 kts 154°
2026-04-28 01:26 -11.86237 -77.19292 2893 ft 202 kts 154°
2026-04-28 01:26 -11.87501 -77.18670 2796 ft 202 kts 154°
2026-04-28 01:26 -11.88748 -77.18056 2592 ft 194 kts 154°
2026-04-28 01:27 -11.89949 -77.17464 2367 ft 188 kts 154°
2026-04-28 01:27 -11.91120 -77.16887 2127 ft 186 kts 155°
2026-04-28 01:27 -11.92281 -77.16315 1893 ft 184 kts 155°
2026-04-28 01:27 -11.93429 -77.15750 1670 ft 182 kts 155°
2026-04-28 01:28 -11.94519 -77.15213 1420 ft 161 kts 155°
2026-04-28 01:28 -11.95480 -77.14739 1215 ft 148 kts 155°
2026-04-28 01:28 -11.96397 -77.14287 1011 ft 145 kts 155°
2026-04-28 01:28 -11.97284 -77.13850 814 ft 143 kts 155°
2026-04-28 01:29 -11.98174 -77.13412 634 ft 141 kts 155°
2026-04-28 01:29 -11.99050 -77.12981 459 ft 139 kts 155°
2026-04-28 01:29 -11.99911 -77.12554 276 ft 136 kts 155°
2026-04-28 01:29 -12.00759 -77.12135 109 ft 135 kts 155°
2026-04-28 01:30 -12.01548 -77.11752 53 ft 109 kts 155°
2026-04-28 01:30 -12.02073 -77.11486 64 ft 59 kts 154°
2026-04-28 01:30 -12.02264 -77.11347 69 ft 7 kts 76°